[Iaude] MPEC D115: 2024 DQ1 [a=1.84,e=0.74,i=31.7,H=21.4]
    mpec at cfa.harvard.edu 
    mpec at cfa.harvard.edu
       
    Fri Feb 23 01:37:34 EST 2024
    
    
  
M.P.E.C. 2024-D115                            Issued 2024 February 23, 06:36 UT
     The Minor Planet Electronic Circulars contain information on unusual
         minor planets, routine data on comets and natural satellites,
         and occasional editorial announcements.  They are published
    on behalf of Division F of the International Astronomical Union by the
          Minor Planet Center, Smithsonian Astrophysical Observatory,
                          Cambridge, MA 02138, U.S.A.
			  
             Prepared using the Tamkin Foundation Computer Network
                              MPC at CFA.HARVARD.EDU
            URL https://www.minorplanetcenter.net/    ISSN 1523-6714
                                    2024 DQ1                                    
Observations:
     K24D01Q*1C2024 02 17.15814807 50 58.214+39 58 25.32         21.90GVED115G96
     K24D01Q 1C2024 02 17.16378407 50 55.259+39 58 15.24         22.04GVED115G96
     K24D01Q 1C2024 02 17.16942107 50 52.321+39 58 05.30         20.92GVED115G96
     K24D01Q 1C2024 02 17.17507307 50 49.391+39 57 56.66         20.84GVED115G96
     K24D01Q  C2024 02 17.21270907 50 29.692+39 56 51.66         20.6 GVED115H01
     K24D01Q  C2024 02 17.21769207 50 27.097+39 56 43.09         21.1 GVED115H01
     K24D01Q  C2024 02 17.22759207 50 21.937+39 56 25.85         20.7 GVED115H01
     K24D01Q  C2024 02 17.23359507 50 18.811+39 56 15.45         20.7 GVED115H01
     K24D01Q KC2024 02 17.28091107 49 54.217+39 54 53.03         21.18GVED115V06
     K24D01Q KC2024 02 17.28506907 49 52.036+39 54 45.50         21.30GVED115V06
     K24D01Q KC2024 02 17.28922507 49 49.897+39 54 38.16         21.24GVED115V06
     K24D01Q KC2024 02 17.29337907 49 47.723+39 54 30.85         21.43GVED115V06
     K24D01Q KC2024 02 18.13007507 42 39.042+39 28 41.16         20.73GVED115I52
     K24D01Q KC2024 02 18.13393907 42 36.994+39 28 33.96         20.55GVED115I52
     K24D01Q KC2024 02 18.13780807 42 34.988+39 28 26.22         20.58GVED115I52
     K24D01Q KC2024 02 18.14166707 42 32.987+39 28 19.13         20.60GVED115I52
     K24D01Q KC2024 02 19.13290907 33 58.608+38 54 02.34         19.8 GVED115I52
     K24D01Q KC2024 02 19.13789107 33 55.997+38 53 51.58         19.7 GVED115I52
     K24D01Q KC2024 02 19.14285407 33 53.330+38 53 41.06         20.1 GVED115I52
     K24D01Q KC2024 02 23.22537006 58 20.990+35 50 00.10         21.40GVED115I52
     K24D01Q KC2024 02 23.23052606 58 18.280+35 49 43.90         21.04GVED115I52
     K24D01Q KC2024 02 23.24086006 58 12.770+35 49 09.80               VED115I52
     K24D01Q KC2024 02 23.24604906 58 10.060+35 48 53.40         21.34GVED115I52
Observer details:
G96 Mt. Lemmon Survey.  Observers T. Beuden, J. K. Hogan.  Measurers T.
    Beuden, V. F. Carvajal, D. Fay, J. B. Fazekas, D. C. Fuls, A. R. Gibbs, A.
    D. Grauer, H. Groeller, J. K. Hogan, R. A. Kowalski, S. M. Larson, G. J.
    Leonard, D. Rankin, R. L. Seaman, F. C. Shelly, K. W. Wierzchos.  1.5-m
    reflector + 10K CCD.
H01 Magdalena Ridge Observatory, Socorro.  Observers W. H. Ryan, E. V. Ryan.
    Measurer W. H. Ryan.  2.4-m f/8.9 Ritchey-Chretien + CCD.
I52 Steward Observatory, Mt. Lemmon Station.  Observers J. B. Fazekas, D.
    Rankin.  Measurers E. C. Beshore, D. Fay, J. B. Fazekas, D. C. Fuls, A. R.
    Gibbs, A. D. Grauer, H. Groeller, J. K. Hogan, R. A. Kowalski, S. M.
    Larson, G. J. Leonard, D. Rankin, R. L. Seaman, F. C. Shelly, K. W.
    Wierzchos, D. Parrott.  1.0-m prime focus + CCD, 1.00-m f/2.0 prime focus
    + CCD + CCD.
V06 Catalina Sky Survey-Kuiper.  Observer J. B. Fazekas.  Measurers T. Beuden,
    V. F. Carvajal, D. Fay, J. B. Fazekas, D. C. Fuls, A. R. Gibbs, A. D.
    Grauer, H. Groeller, J. K. Hogan, R. A. Kowalski, S. M. Larson, G. J.
    Leonard, D. Rankin, R. L. Seaman, F. C. Shelly, K. W. Wierzchos.  1.55-m
    reflector + 1K CCD.
Orbital elements:
2024 DQ1                                                 Earth MOID = 0.0524 AU
Epoch 2024 Mar. 31.0 TT = JDT 2460400.5                 MPC                     
M 348.92269              (2000.0)            P               Q                  
n   0.39502820     Peri.  289.80454     -0.15094654     +0.94626384             
a   1.8395742      Node   327.05084     -0.58840661     -0.31849165             
e   0.7440855      Incl.   31.72546     -0.79435056     +0.05610538             
P   2.50           H   21.43          G   0.15           U   9                  
Residuals in seconds of arc
240217 G96  0.1-  0.0     240217 V06  0.0   0.1+    240219 I52  0.3-  0.1-
240217 G96  0.4-  0.5-    240217 V06  0.1-  0.0     240219 I52  0.1+  0.1-
240217 G96  0.4-  0.9-    240217 V06  0.2+  0.1+    240219 I52  0.3-  0.1+
240217 G96  0.3-  0.0     240217 V06  0.1+  0.1+    240223 I52  0.2+  0.0
240217 H01  0.0   0.0     240218 I52  0.0   0.0     240223 I52  0.3+  0.4+
240217 H01  0.0   0.1+    240218 I52  0.2-  0.2+    240223 I52  0.3-  0.4-
240217 H01  0.1+  0.0     240218 I52  0.2+  0.1-    240223 I52  0.0   0.0
240217 H01  0.1+  0.1+    240218 I52  0.5+  0.2+
Ephemeris:
2024 DQ1                 a,e,i = 1.84, 0.74, 32                  q = 0.4708
Date    TT    R. A. (2000) Decl.     Delta      r    Elong.  Phase     V
2024 01 24    10 09 09.9 +39 53 52   0.6617  1.5892   149.2    18.5    22.5
...
2024 02 08    09 00 57.1 +41 58 38   0.4705  1.4215   152.9    18.4    21.5
...
2024 02 16    08 00 44.3 +40 29 00   0.3982  1.3264   142.6    26.9    21.3
...
2024 02 22    07 08 59.5 +36 52 16   0.3612  1.2525   130.1    37.2    21.2
2024 02 23    07 00 18.8 +36 01 55   0.3566  1.2399   127.7    39.1    21.2
2024 02 24    06 51 42.1 +35 07 38   0.3524  1.2273   125.3    41.1    21.2
...
2024 03 01    06 02 47.4 +28 29 59   0.3367  1.1502   110.0    54.1    21.3
...
2024 03 09    05 08 17.7 +17 48 19   0.3386  1.0439    89.1    72.0    21.7
...
2024 03 24    03 52 26.1 -01 02 05   0.3929  0.8356    54.9   102.4    22.8
A. U. Tomatic                (C) Copyright 2024 MPC           M.P.E.C. 2024-D115
    
    
More information about the Iaude
mailing list